Meteo Giornale » Osservazioni meteo Italia » Napoli-Capodichino

ore: 21:20 - Osservazioni Meteo Napoli-Capodichino
Lat. 40° 51' N Lon. 14° 18' E Alt. 88 metri s.l.m.

nuvoloso Europe/Rome

19 °C

Nuvoloso

Temp. 24 Ore

8 °C

19 °C

Sud/Sud-Ovest

20.3 Km/h

Dew point 15 °C

Umidità 77 %

Visibilità  10 Km

Il sole sorge alle ore 06:53

Il sole tramonta alle ore 16:42

Data e Ora Cielo e Fenomeni T °C DP °C Um. % Pres. hPa Vis. km Vento km/h
Oggi h: 21:20 nuvoloso Nuvoloso 19 15 77 1002 10 S/SO 20.3
Oggi h: 20:50 nuvoloso Nuvoloso 19 15 77 1002 10 S/SO 24
Oggi h: 20:20 nuvoloso Nuvoloso 19 15 77 1001 10 S/SO 25.9
Oggi h: 19:50 nuvoloso Nuvoloso 19 14 72 1001 10 S 27.8
Oggi h: 19:20 nuvoloso_temporali Temporale con Pioggia Debole 18 14 77 1001 10 S/SO 27.8
Oggi h: 18:50 nuvoloso_temporali Temporale con Pioggia Debole 18 14 77 1001 10 S 27.8
Oggi h: 18:20 nuvoloso_temporali Temporale con Pioggia 17 13 77 1000 10 S/SE 29.6
Oggi h: 17:50 coperto_temporali Temporale 17 11 67 1000 10 S/SE 20.3
Oggi h: 17:20 nuvoloso_temporali Temporale con Pioggia Debole 14 11 82 1001 8 N 3.7
Oggi h: 16:50 nuvoloso_temporali Temporale con Pioggia Debole 13 11 87 1002 8 N 5.5
Oggi h: 16:20 molto_nuvoloso Molto Nuvoloso 13 10 81 1002 10 E/NE 9.3
Oggi h: 15:50 molto_nuvoloso Molto Nuvoloso 13 10 81 1002 10 E/NE 9.3
Oggi h: 15:20 coperto_pioggia Pioviggine Leggera 13 10 81 1003 10 E/NE 7.4
Oggi h: 14:50 coperto_pioggia Pioviggine Leggera 12 10 87 1004 10 E/NE 11.1
Oggi h: 14:20 coperto_pioggia Pioviggine Leggera 11 10 93 1004 8 NE 13
Oggi h: 13:50 coperto_pioggia Pioggia Debole 11 9 87 1005 8 N/NE 11.1
Oggi h: 13:20 coperto_pioggia Pioggia Debole 11 9 87 1005 8 N 11.1
Oggi h: 12:50 coperto_pioggia Pioggia Debole 12 9 81 1006 8 N 11.1
Oggi h: 12:20 coperto_pioggia Pioviggine Leggera 12 7 71 1006 10 N 13
Oggi h: 11:50 nuvoloso Nuvoloso 13 6 62 1006 10 N 13
Oggi h: 11:20 nuvoloso Nuvoloso 13 6 62 1007 10 N/NE 11.1
Oggi h: 10:50 nuvoloso Nuvoloso 12 5 62 1007 10 N 11.1
Oggi h: 10:20 nuvoloso Nuvoloso 12 5 62 1007 10 N/NO 9.3
Oggi h: 09:50 sereno Sereno 11 5 66 1007 10 N/NO 9.3
Oggi h: 09:20 sereno Sereno 11 4 61 1007 10 N 11.1
Oggi h: 08:50 sereno Sereno 10 4 66 1007 10 N 11.1
Oggi h: 08:20 sereno Sereno 10 4 66 1007 10 N 9.3
Oggi h: 07:50 sereno Sereno 9 4 70 1008 10 N/NO 9.3
Oggi h: 07:20 sereno Sereno 9 4 70 1007 10 N/NO 7.4
Oggi h: 06:50 sereno Sereno 8 4 75 1008 10 N/NO 9.3
Oggi h: 06:20 sereno Sereno 8 4 75 1008 10 N/NO 7.4
Oggi h: 05:50 sereno Sereno 9 3 66 1008 10 N/NO 9.3
Oggi h: 05:20 sereno Sereno 8 4 75 1008 10 NO 7.4
Oggi h: 04:50 sereno Sereno 8 3 70 1008 10 N 5.5
Oggi h: 04:20 sereno Sereno 8 3 70 1008 10 N/NO 7.4
Oggi h: 03:50 sereno Sereno 8 3 70 1008 10 N/NO 9.3
Oggi h: 03:20 sereno Sereno 8 3 70 1009 10 NO 7.4
Oggi h: 02:50 sereno Sereno 9 3 66 1009 10 N/NO 7.4
Oggi h: 02:20 sereno Sereno 9 3 66 1009 10 N/NO 9.3
Oggi h: 01:50 sereno Sereno 10 4 66 1009 10 N 9.3
Oggi h: 01:20 sereno Sereno 10 3 61 1009 10 N 7.4
Oggi h: 00:50 sereno Sereno 9 3 66 1009 10 N 7.4
Oggi h: 00:20 sereno Sereno 9 3 66 1010 10 N/NO 7.4
Ieri h: 23:50 sereno Sereno 9 3 66 1010 10 N 7.4
Ieri h: 23:20 sereno Sereno 8 3 70 1010 10 N/NO 7.4
Ieri h: 22:50 nuvoloso Nuvoloso 9 3 66 1010 10 N 7.4
Ieri h: 22:20 nuvoloso Nuvoloso 9 3 66 1010 10 N 11.1
Ieri h: 21:50 nuvoloso Nuvoloso 9 3 66 1010 10 N 11.1
Ieri h: 21:20 nuvoloso Nuvoloso 10 3 61 1010 10 N 13
Ieri h: 20:50 nuvoloso Nuvoloso 11 3 57 1010 10 N 11.1